Theta_e
298 294 292 292 290 288 288 288 287 288 288 286 283 281 280 281 281 282 283 282 282 283 281 281 281 281 280 279 280 279 279 279 280 279 279 280 281 280 280 281 280 281 283
294 293 290 289 289 287 287 287 287 287 287 287 283 282 281 281 281 282 282 283 282 282 282 280 280 280 279 279 279 278 278 279 279 277 277 276 278 280 280 280 281 279 281
295 292 289 288 288 287 286 286 287 287 287 287 285 283 282 281 280 280 280 281 282 283 282 281 280 279 279 278 278 277 277 277 278 278 276 274 274 275 279 279 279 280 280
295 293 289 288 287 287 287 287 286 287 288 287 285 283 281 280 279 279 279 280 281 282 282 281 280 279 279 277 278 279 277 277 277 278 280 277 276 274 273 278 279 279 280
293 292 289 289 288 287 285 286 286 286 287 286 285 283 279 278 278 278 278 278 279 281 281 280 279 278 278 277 277 277 276 277 276 276 277 275 276 275 275 272 275 278 279
290 293 290 289 287 285 285 284 284 284 285 285 284 283 279 277 277 276 276 277 277 278 279 280 278 278 277 277 277 277 276 276 276 276 275 275 274 274 273 272 273 274 276
288 289 286 285 284 283 283 283 283 281 281 283 282 282 278 278 277 276 276 276 276 276 276 277 277 277 277 278 278 277 276 276 275 275 275 276 276 277 276 275 274 273 276
286 284 283 283 281 282 282 283 282 279 279 280 281 280 277 277 276 276 276 276 276 276 276 276 276 276 277 277 277 277 276 276 276 275 275 276 276 277 277 276 274 272 273
282 281 281 281 281 281 281 281 280 279 279 278 278 277 276 276 276 276 276 276 276 278 276 276 276 276 276 277 276 275 275 275 276 276 276 275 276 277 277 277 276 274 271
280 280 280 280 280 280 280 280 280 279 278 277 276 277 276 276 276 276 275 276 276 276 276 276 275 276 276 276 275 275 276 275 275 276 275 275 275 276 276 277 276 276 274
279 279 279 279 281 279 278 278 278 278 277 277 276 275 276 276 276 276 275 276 276 276 276 276 276 276 276 276 275 274 275 275 275 275 275 275 275 275 275 276 276 275 275
279 278 278 278 277 278 278 278 278 278 277 276 276 276 276 276 276 276 276 276 276 277 277 277 277 277 277 276 275 275 275 274 274 274 274 275 277 276 276 275 275 275 276
277 277 277 278 277 277 278 278 277 277 277 277 277 276 276 275 275 275 276 277 276 277 277 277 276 276 277 276 275 275 275 275 275 275 275 275 276 277 278 278 277 277 278
277 275 275 276 277 278 277 277 277 277 277 277 277 276 276 276 277 277 277 278 277 276 276 277 276 277 276 277 276 277 276 276 277 277 279 279 279 279 279 279 278 279 278
275 276 274 275 276 276 277 277 277 277 277 276 276 276 276 276 277 277 276 277 277 276 276 276 276 276 276 277 277 279 278 277 278 279 280 280 281 284 284 282 281 281 281
276 276 276 276 275 275 276 276 276 276 277 276 275 276 276 276 276 276 276 276 276 276 275 275 276 275 277 280 283 283 279 279 279 279 279 280 282 282 285 285 285 284 281
276 276 276 275 275 275 275 274 275 276 275 275 275 275 275 275 275 275 275 275 274 275 275 275 275 274 275 280 283 284 282 279 278 278 279 280 281 282 280 282 284 285 286
276 274 273 273 274 274 274 275 275 275 274 274 275 275 275 274 274 274 274 274 274 274 274 275 275 276 276 281 283 284 281 278 278 279 279 279 279 280 282 281 281 281 282
273 273 274 274 274 274 275 274 274 274 274 274 273 273 273 273 273 273 273 274 274 274 274 276 275 275 275 280 282 283 277 277 279 280 280 280 280 283 285 281 280 280 280
273 273 273 273 273 273 273 273 273 273 273 273 273 273 273 272 272 272 273 274 274 274 275 275 276 276 275 279 282 283 279 275 278 281 280 283 282 284 285 281 279 277 277
272 272 272 271 271 273 273 271 271 271 272 272 272 272 272 272 272 273 273 274 273 273 273 274 274 274 275 276 282 283 280 279 280 278 279 280 283 284 284 284 279 277 281
271 271 270 270 272 272 272 270 270 271 271 270 270 270 271 272 275 273 273 274 272 270 271 272 272 276 276 279 280 283 284 284 278 277 279 279 283 283 283 281 282 283 282
271 271 270 269 270 271 271 269 269 270 269 269 269 269 270 273 273 272 272 271 271 269 269 271 272 273 276 276 280 282 284 283 280 280 281 282 282 281 279 279 281 281 276
271 271 270 269 268 270 270 269 270 269 268 267 268 268 268 271 270 271 272 269 267 267 268 270 270 271 273 273 275 278 279 281 280 280 278 279 278 278 277 276 276 276 275
271 270 269 269 268 269 269 270 269 267 267 266 266 266 268 266 267 269 268 267 268 269 269 268 267 269 271 272 280 281 279 279 280 280 274 271 271 271 271 272 273 275 275
269 269 269 268 267 268 268 269 268 267 264 265 266 264 265 263 264 263 263 272 274 276 277 277 276 276 278 280 281 281 281 282 281 274 269 269 269 269 270 271 272 273 274
Wind_Speed
14 14 16 16 14 14 15 15 14 13 11 9 7 4 4 3 3 3 5 6 5 5 5 4 4 4 4 4 5 2 4 4 7 3 4 3 3 3 4 3 3 5 4
13 17 17 15 17 17 16 15 15 14 12 9 4 4 5 2 3 3 4 5 6 6 5 5 4 5 4 5 5 5 3 3 5 3 1 3 3 3 3 3 3 5 4
19 16 18 19 17 18 18 17 15 15 12 11 7 5 4 4 3 2 3 3 5 5 6 5 4 4 3 3 3 3 4 3 3 5 3 2 2 4 3 4 4 8 3
10 13 17 18 20 19 16 17 16 16 13 14 9 14 6 7 4 4 3 4 4 5 5 5 5 4 3 4 2 3 2 2 2 2 4 1 1 2 5 3 4 1 8
12 18 22 22 18 17 18 17 16 16 14 14 11 10 7 3 4 4 7 5 4 5 5 5 4 4 3 3 3 2 3 2 2 1 1 1 2 3 3 6 7 7 5
11 14 13 13 15 13 14 14 16 13 13 12 11 11 11 8 7 5 4 4 3 3 4 5 4 3 3 2 1 1 2 1 1 1 2 2 2 2 3 4 7 10 8
6 8 14 14 14 16 14 13 15 11 10 11 10 9 9 8 8 6 4 5 3 2 2 3 3 2 1 1 1 1 1 1 1 1 2 2 3 3 4 6 7 6 6
7 6 5 8 11 13 13 13 13 12 10 9 8 7 8 5 4 4 4 4 3 3 3 3 2 1 2 2 2 1 2 2 2 4 4 3 4 4 4 5 7 9 5
5 7 8 8 11 11 13 15 15 12 9 9 9 7 7 7 6 6 5 4 3 3 3 3 2 1 2 2 2 2 3 2 3 4 5 4 3 4 4 5 5 6 8
5 5 6 9 7 9 10 12 13 14 11 10 8 7 7 7 7 6 6 5 4 3 3 2 0 1 2 3 3 3 4 4 3 4 5 4 4 5 4 5 6 6 9
4 5 5 6 8 8 10 12 14 14 12 10 7 8 6 6 6 5 5 5 4 3 2 1 1 2 3 3 3 4 5 5 5 5 5 6 5 5 5 5 6 7 8
5 6 7 7 10 9 10 12 12 12 10 9 10 9 7 6 6 5 5 4 3 1 0 1 2 3 4 3 4 5 5 6 6 6 5 7 7 7 6 5 8 9 11
6 6 8 9 9 11 10 10 11 12 11 10 10 9 8 8 6 5 4 3 2 1 2 3 3 4 5 4 5 5 6 6 6 7 7 8 8 9 8 9 10 10 10
2 3 5 6 7 9 10 10 10 11 10 10 9 9 8 7 6 5 4 3 3 2 2 3 4 5 5 6 6 7 8 7 7 7 8 9 10 11 12 12 13 12 11
2 3 4 5 7 8 10 11 11 10 10 10 9 7 6 5 4 5 5 3 2 2 3 4 4 5 5 5 6 8 6 6 7 7 9 10 14 22 20 11 11 12 10
4 4 6 8 8 9 10 12 12 10 9 9 8 7 6 6 5 3 3 1 2 3 3 4 4 5 5 10 12 10 2 4 6 9 10 11 18 16 22 24 26 22 15
6 8 8 8 8 10 11 12 12 11 10 8 7 7 6 5 3 2 1 1 2 3 4 5 4 5 5 10 13 14 4 4 6 10 11 11 10 17 13 20 26 24 26
8 10 10 12 12 11 11 11 9 8 8 7 6 5 4 3 2 1 1 2 3 4 4 5 5 6 6 11 13 14 5 5 9 11 12 12 13 13 16 16 14 13 13
6 6 8 11 10 10 8 9 8 7 6 5 5 4 3 2 2 0 2 3 3 4 4 5 5 5 6 12 12 13 4 5 10 11 11 11 12 18 26 17 15 14 13
6 6 7 8 9 8 8 9 7 5 5 5 5 3 2 1 1 1 1 2 3 4 5 6 5 8 6 11 15 13 2 5 9 9 9 17 18 25 26 18 14 15 14
8 8 9 9 8 7 7 7 6 5 4 5 3 1 1 1 2 2 3 2 2 4 4 5 5 6 6 6 15 17 6 7 6 8 9 9 24 27 28 28 12 14 21
7 8 8 7 6 5 5 5 5 4 4 2 1 1 2 2 0 1 3 3 2 3 4 4 5 4 5 12 13 18 19 18 9 8 9 11 26 28 28 22 24 28 25
5 4 5 5 4 4 3 4 3 3 2 1 1 1 2 2 2 1 2 2 2 2 3 3 4 5 6 6 17 19 18 18 13 9 18 27 26 26 18 23 26 24 11
3 3 3 4 3 2 4 4 3 2 2 1 1 2 2 0 2 2 2 2 2 2 3 4 4 4 6 6 7 7 7 14 10 16 10 18 20 20 19 15 13 10 10
2 2 2 2 2 3 4 3 3 2 1 1 1 1 1 2 2 2 3 3 4 4 4 3 3 4 5 5 17 16 11 11 15 18 8 9 9 10 10 10 12 11 11
1 1 2 3 2 2 3 3 3 2 1 0 0 1 1 2 2 2 4 6 6 9 9 9 8 5 13 19 20 22 23 24 24 9 8 9 9 11 11 11 12 12 15
Wind_Direction
214 194 186 177 171 171 166 167 162 164 151 147 142 136 149 144 112 123 132 127 126 120 116 108 95 74 68 56 45 34 27 8 355 350 5 353 52 88 28 8 6 16 10
200 185 180 179 181 173 175 171 170 164 162 158 141 137 140 139 141 151 143 138 135 131 119 109 89 74 73 55 55 42 29 12 5 21 256 9 342 334 358 355 21 9 358
214 191 182 183 178 183 178 171 169 167 164 154 128 106 84 85 119 152 128 148 130 116 112 107 101 85 82 69 70 53 60 43 1 33 76 8 343 328 322 342 3 344 351
210 188 186 186 188 184 172 170 167 169 167 160 151 160 158 160 173 153 139 120 114 116 117 110 97 92 81 65 30 59 84 97 61 8 44 104 212 324 314 277 290 356 324
195 192 194 192 185 174 173 167 163 167 167 168 163 158 136 129 122 122 127 123 106 105 105 99 94 81 70 67 58 34 43 75 103 102 8 294 258 250 259 299 310 311 312
212 199 189 176 174 166 166 161 160 163 159 163 160 158 149 142 134 134 135 128 107 94 95 90 86 75 68 59 54 50 27 36 197 186 191 198 210 216 234 272 286 282 307
229 167 165 167 164 163 160 159 158 149 143 152 153 152 145 144 142 144 138 135 119 95 95 97 82 73 56 37 30 3 336 270 235 257 257 248 235 241 255 267 278 271 299
41 62 118 142 148 157 155 155 149 132 134 136 140 129 123 123 117 125 122 122 120 125 121 104 102 76 11 356 356 314 285 243 304 287 261 253 244 242 252 270 297 306 287
91 125 130 137 153 153 158 147 139 132 128 124 122 116 118 121 125 120 115 122 123 145 132 110 92 15 336 325 311 282 295 315 281 264 255 246 248 246 241 249 255 268 298
97 107 109 136 136 146 134 133 133 134 128 121 122 127 127 123 124 122 128 133 132 103 114 115 104 310 313 310 316 313 302 286 271 266 269 262 253 257 254 258 259 255 266
95 99 112 121 136 123 135 132 131 131 130 125 111 111 110 108 110 113 121 128 122 130 141 163 304 309 314 319 320 291 274 268 269 265 263 269 261 266 261 258 261 264 264
141 130 130 135 132 135 138 137 131 128 127 126 124 121 113 106 102 104 111 113 113 116 63 324 320 326 315 288 275 271 285 268 273 276 273 272 288 284 280 271 268 260 264
156 140 139 151 149 144 143 135 132 128 130 128 123 118 117 114 110 107 101 100 88 37 6 1 316 294 290 278 270 258 258 260 263 266 268 281 276 278 278 265 264 267 268
213 151 129 138 145 138 132 127 119 117 118 115 116 117 119 120 124 122 105 63 31 15 307 304 300 298 291 286 266 260 257 254 260 259 265 270 268 274 283 277 273 270 265
206 163 137 128 132 129 122 118 110 109 112 108 104 97 97 96 95 85 74 59 6 343 303 297 301 291 286 265 253 252 252 261 275 272 280 279 277 283 289 293 291 282 280
176 141 130 124 118 121 116 111 103 94 94 94 96 104 95 81 80 79 70 43 320 312 312 300 295 290 291 298 292 309 279 280 285 294 291 279 285 288 291 297 302 294 291
137 130 118 103 99 97 99 95 97 103 106 113 113 109 110 112 109 103 96 307 306 301 300 287 289 283 279 298 312 310 327 274 276 281 278 283 286 296 289 284 284 285 283
130 115 111 109 108 111 107 106 101 104 110 112 109 109 111 113 96 47 337 314 307 304 294 294 284 286 298 318 318 316 306 277 275 275 275 275 282 283 285 287 286 285 277
68 96 111 115 116 112 108 105 103 105 109 113 108 100 105 124 121 112 321 308 300 306 296 294 297 288 292 323 321 315 263 272 280 282 284 284 284 293 302 304 298 293 294
35 54 68 84 87 86 97 100 101 100 94 94 87 76 33 344 312 274 269 281 302 300 307 305 300 304 306 319 317 329 307 281 286 293 283 300 309 312 310 316 313 310 304
56 57 64 70 70 77 87 94 95 91 89 82 77 65 317 298 263 298 303 299 305 314 289 297 292 292 297 302 327 325 325 300 312 309 311 304 312 313 323 317 317 300 302
65 65 70 66 62 67 88 97 93 85 80 72 65 327 319 298 240 302 298 301 305 296 294 291 305 313 308 317 326 327 327 331 323 310 307 303 316 324 319 319 308 309 317
60 70 93 95 73 75 91 106 93 95 72 48 14 341 318 285 356 282 319 315 308 288 310 321 315 314 318 305 316 322 317 332 329 319 317 326 324 321 317 308 311 316 304
94 105 107 99 97 88 102 114 121 88 74 37 25 345 350 163 6 334 307 295 277 289 290 299 291 290 305 299 300 297 315 322 327 325 322 320 319 312 306 309 304 301 298
137 136 110 121 133 131 121 139 120 98 105 67 356 345 2 16 333 313 265 265 262 225 243 243 241 287 302 288 324 329 332 328 331 332 327 316 316 312 311 309 307 301 301
113 96 134 125 138 141 134 121 111 104 65 290 168 299 357 341 324 325 320 325 319 312 313 322 324 306 320 323 325 333 334 332 331 333 310 307 311 306 307 306 304 303 308